DECAYED

OBJECT B, 60455 (Decayed)

Orbit data source: Space-Track

You're viewing an Uncataloged Satellite

Recently launched and/or uncataloged satellites may have evolving metadata. Metadata may include but not limited to: Owner, Maufacturer, Bus, Motor, and Mission.

OBJECT B, 60455 was an Indian satellite in LEO that was launched on Fri, 16 Aug 2024 UTC via an SSLV launch vehicle from the Sirharikota (SRI). Unknown objects in Earth's orbit typically refer to objects detected orbiting the Earth but have not yet been identified or cataloged. These objects could be anything from previously untracked satellites, spent rocket stages, debris from satellite collisions, or even natural meteoroids temporarily captured by Earth's gravity. This object's orbit decayed before it could be identified.

Not visible in the next 10 days
OBJECT B details
Identifier
60455, 2024-147B
Orbit
Decayed
Last TLE update2 months ago
Origin
Flag of INSRICK/SKI (IN / IND)
ManufacturerSRICK
MissionDecayed spacecraft
Bus & MotorSR0, Unknown motor
Mass0.2 kg wet, 0.2 kg dry
Launch date (UTC)
2024-08-16 (4 months ago)
Launch vehicle
SSLV
Launch site
Sirharikota (SRI)
Object typeUnknown
Shape & HBRUnknown
Radar Cross SectionSmall (<0.1 m²)

Expand to show TLE details & history

TLE from 2 months ago
0 OBJECT B
1 60455U 24147B   24306.95056519  .14569292  41128-5  32600-2 0  9995
2 60455  37.3538 162.9853 0013229 282.3917  77.5393 16.28877097 11746
Epoch: 2024-11-01T22:48Z
Definitive object data (Epoch: 2024-11-01T22:48:48.832Z)
Latitude-0.00001°
Longitude139.06982°
Altitude192.812 km
Speed7.794 km/s
True Right ascension10h 51m 56s
True Declination0° 00' 00"
Sunlit
Object was in daylight at TLE epoch
Visualization observer readout
Observer readout values are unavailable because the object's trajectory could not be propagated. This is usually caused when the trajectory data is faulty or the object's orbit has decayed.
Visualization observer readout
Observer readout values are unavailable because the object's trajectory could not be propagated. This is usually caused when the trajectory data is faulty or the object's orbit has decayed.
Orbital elements
Apogee altitude207.265 km
Perigee altitude189.864 km
Semi-major axis6,576.701 km
Eccentricity0.0013229
Inclination37.3538°
RAAN162.9853°
Arg. of periapsis282.3917°
True anomaly77.68737°
Mean anomaly77.5393°
Eccentric anomaly77.61333°
Mean motion4.06941 °/min
BSTAR0.00326
Orbital period88.47 mins
Loading maneuver chart data...
Loading historical data...
Loading historical data...
Loading historical data...
Loading historical data...
Loading historical data...
Loading historical data...
Loading historical data...
Other satellites on launch #147 in the year 2024 (2024-08-16 UTC)

OBJECT B Visibility forecast

Observer location: undefined°, undefined

This satellite is decayed
Span
Click to sort rows by Start time (UTC) header in descending order
Start Az.
Max El. time (UTC)
Max El. Az.
Max El.
End time (UTC)
End Az.
|